This is the latest recevied weather packets stored in our database for station/object LU8AQL-WX. If no packets are shown the sender has not sent any weather packets the latest 10 day(s).
| Time | Temp. | Humidity | Pressure | Rain* | Wind** | Luminosity | Snow |
|---|---|---|---|---|---|---|---|
| 1787378967 | 3.89° C | 74% | 1027 hPa | 0 mm | - | - | - |
| 1787378366 | 5° C | 71% | 1027 hPa | 0 mm | - | - | - |
| 1787377765 | 5.56° C | 68% | 1027 hPa | 0 mm | - | - | - |
| 1787377164 | 5.56° C | 68% | 1027 hPa | 0 mm | - | - | - |
| 1787376563 | 5° C | 71% | 1026 hPa | 0 mm | - | - | - |
| 1787375962 | 3.89° C | 75% | 1026 hPa | 0 mm | - | - | - |
| 1787375361 | 5.56° C | 68% | 1026 hPa | 0 mm | - | - | - |
| 1787374760 | 5.56° C | 71% | 1027 hPa | 0 mm | - | - | - |
| 1787374159 | 4.44° C | 74% | 1027 hPa | 0 mm | - | - | - |
| 1787373558 | 5° C | 73% | 1027 hPa | 0 mm | - | - | - |
| 1787372957 | 6.11° C | 70% | 1026 hPa | 0 mm | - | - | - |
| 1787372356 | 5.56° C | 71% | 1026 hPa | 0 mm | - | - | - |
| 1787371755 | 5.56° C | 71% | 1026 hPa | 0 mm | - | - | - |
| 1787371154 | 6.11° C | 71% | 1027 hPa | 0 mm | - | - | - |
| 1787370553 | 6.67° C | 69% | 1027 hPa | 0 mm | - | - | - |
| 1787369952 | 6.67° C | 69% | 1027 hPa | 0 mm | - | - | - |
| 1787369351 | 6.67° C | 69% | 1026 hPa | 0 mm | - | - | - |
| 1787368750 | 6.67° C | 69% | 1026 hPa | 0 mm | - | - | - |
| 1787368149 | 6.67° C | 68% | 1026 hPa | 0 mm | - | - | - |
| 1787367548 | 6.67° C | 68% | 1027 hPa | 0 mm | - | - | - |
| 1787366947 | 6.67° C | 66% | 1027 hPa | 0 mm | - | - | - |
| 1787366346 | 6.67° C | 66% | 1027 hPa | 0 mm | - | - | - |
| 1787365744 | 7.22° C | 65% | 1026 hPa | 0 mm | - | - | - |
| 1787365144 | 6.67° C | 67% | 1026 hPa | 0 mm | - | - | - |
| 1787364543 | 6.67° C | 67% | 1026 hPa | 0 mm | - | - | - |
* Rain latest hour (hover to see other rain measurements)
** Current wind speed in m/s (hover to see current wind gust speed)